Location: eljas
(40.1958°N, 6.8661°W)
Time: 11:14:32
(UTC+01:00)

Amateur Radio Satellites - All Passes

Search period start: 25 January 2015 10:44
Search period end: 26 January 2015 10:44
Location: eljas, 40.1958°N, 6.8661°W

Satellite Date Start Highest point End Downlink Frequencies (MHz)
Time Altitude Azimuth
RS-15 25 Jan 10:44:46 10:52:46 22° 344° (NNW) 11:00:44 29.354- 29.394
QB50P2 25 Jan 10:44:47 10:48:02 22° 68° (ENE) 10:51:24 145.880/145.840
HUMSAT D 25 Jan 10:47:58 10:48:17 10° 87° (E) 10:48:55 437.325/437.525
ANTELSAT 25 Jan 10:50:36 10:55:05 44° 72° (ENE) 10:59:35 437.575/2403.000
COMPASS 1 25 Jan 10:53:22 10:57:31 65° 284° (WNW) 11:01:37 437.405
CANX-2 25 Jan 10:53:26 10:57:26 41° 287° (WNW) 11:01:24 2200.000
QB50P1 25 Jan 10:55:27 10:59:03 28° 70° (ENE) 11:02:45 145.935-145.965
TIGRISAT 25 Jan 11:01:06 11:05:42 56° 74° (ENE) 11:10:20 435.000
Oscar 11 25 Jan 11:02:27 11:06:45 64° 101° (E) 11:11:00 145.826/435.025
PHONESAT 2.4 25 Jan 11:03:40 11:04:18 10° 145° (SE) 11:05:03 2401.200-2431.200
CINEMA 3 25 Jan 11:04:18 11:09:16 81° 100° (E) 11:14:01 145.822/145.860
POLYITAN 1 25 Jan 11:06:33 11:10:29 37° 72° (ENE) 11:14:31 437.675
50 SAT 25 Jan 11:06:43 11:08:20 12° 89° (E) 11:10:10 437.505
CUBEBUG 2 25 Jan 11:11:48 11:16:24 57° 99° (E) 11:20:49 437.445
CUTE 1.7 + AOD 2 25 Jan 11:18:45 11:22:15 25° 290° (WNW) 11:25:39 437.475
AAUSAT CUBESAT 2 25 Jan 11:23:42 11:27:28 33° 289° (WNW) 11:31:11 437.432
BRITE-PL 25 Jan 11:25:47 11:30:19 24° 294° (WNW) 11:34:39 437.365/2234.400
POPSAT HIP 1 25 Jan 11:28:54 11:33:07 66° 75° (ENE) 11:37:24 437.405
BUGSAT 1 25 Jan 11:31:54 11:35:51 54° 74° (ENE) 11:39:54 437.445
DUCHIFAT 1 25 Jan 11:34:23 11:38:37 76° 76° (ENE) 11:42:55 145.980
UKube-1 25 Jan 11:35:05 11:39:28 82° 103° (ESE) 11:43:50 .
ZACube-1 25 Jan 11:40:21 11:44:52 82° 102° (ESE) 11:49:14 437.345
ESTCUBE 1 25 Jan 11:41:00 11:43:37 16° 90° (E) 11:46:25 437.505/2401.250
DELFI C3 25 Jan 11:45:44 11:49:38 46° 286° (WNW) 11:53:30 145.870
GOMX 1 25 Jan 11:45:49 11:49:55 21° 295° (WNW) 11:53:46 467.674
DX 1 25 Jan 11:50:13 11:54:36 65° 286° (WNW) 11:58:57 434.975-435.025
HO-68 25 Jan 11:51:21 11:57:27 31° 298° (WNW) 12:03:25 435.675
UNISAT 6 25 Jan 11:51:42 11:56:11 42° 262° (W) 12:00:41 437.425
AISAT 25 Jan 11:52:04 11:56:27 48° 100° (E) 12:00:49 437.250
FUNcube-1 25 Jan 11:53:59 11:58:28 72° 284° (WNW) 12:02:48 145.935
SEEDS 25 Jan 11:57:43 11:59:22 12° 295° (WNW) 12:00:49 437.485
UWE-3 25 Jan 12:02:07 12:06:32 48° 287° (WNW) 12:10:48 435.000/436.395/437.385
VERMONT LUNAR 25 Jan 12:07:50 12:11:09 42° 159° (SSE) 12:14:31 437.305
NANOSAT C BR1 25 Jan 12:08:07 12:12:10 43° 262° (W) 12:16:17 145.865
BEESAT 3 25 Jan 12:11:06 12:12:54 13° 39° (NE) 12:14:50 437.485
QB50P2 25 Jan 12:19:59 12:23:49 31° 264° (W) 12:27:39 145.880/145.840
HUMSAT D 25 Jan 12:20:24 12:24:39 64° 285° (WNW) 12:28:49 437.325/437.525
DOVE 4 25 Jan 12:21:36 12:24:07 13° 298° (WNW) 12:26:19 437.250
VELOX 1 25 Jan 12:22:49 12:27:20 80° 285° (WNW) 12:31:49 145.980
ANTELSAT 25 Jan 12:28:45 12:32:08 19° 269° (W) 12:35:21 437.575/2403.000
QB50P1 25 Jan 12:31:26 12:34:57 24° 266° (W) 12:38:26 145.935-145.965
PHONESAT 2.4 25 Jan 12:38:53 12:42:20 42° 158° (SSE) 12:45:48 2401.200-2431.200
50 SAT 25 Jan 12:39:54 12:43:51 48° 286° (WNW) 12:47:44 437.505
TIGRISAT 25 Jan 12:40:07 12:42:52 15° 271° (W) 12:45:23 435.000
SO-50 25 Jan 12:40:19 12:44:48 63° 119° (ESE) 12:49:28 436.795
Oscar 11 25 Jan 12:40:44 12:42:28 12° 296° (WNW) 12:44:00 145.826/435.025
POLYITAN 1 25 Jan 12:43:35 12:46:38 18° 268° (W) 12:49:33 437.675
CINEMA 3 25 Jan 12:43:53 12:45:49 12° 298° (WNW) 12:47:28 145.822/145.860
GONETS M04 25 Jan 12:43:53 12:49:55 21° 62° (ENE) 12:56:18
CUBEBUG 1 25 Jan 12:45:36 12:50:03 74° 102° (ESE) 12:54:30 437.445
CUBEBUG 2 25 Jan 12:49:57 12:52:39 15° 296° (WNW) 12:55:07 437.445
SPROUT 25 Jan 12:50:41 12:53:48 20° 92° (E) 12:57:03 437.525
AIST 2 25 Jan 13:00:54 13:03:26 15° 42° (NE) 13:06:04 435.215
RS-15 25 Jan 13:02:27 13:10:37 23° 19° (NNE) 13:19:15 29.354- 29.394
AIST 1 25 Jan 13:04:59 13:09:11 63° 95° (E) 13:13:24
BUGSAT 1 25 Jan 13:10:21 13:11:49 11° 271° (W) 13:13:02 437.445
ESTCUBE 1 25 Jan 13:16:28 13:20:50 48° 287° (WNW) 13:25:10 437.505/2401.250
ZACube-1 25 Jan 13:20:09 13:20:37 10° 298° (WNW) 13:20:49 437.345
BEESAT 2 25 Jan 13:28:36 13:32:43 54° 55° (NE) 13:36:45 435.950
AISAT 25 Jan 13:29:47 13:32:44 17° 294° (WNW) 13:35:32 437.250
Oscar 19 25 Jan 13:42:36 13:47:35 49° 72° (ENE) 13:52:37 437.125/150
TISAT 1 25 Jan 13:43:08 13:47:27 76° 101° (E) 13:51:44 437.305
VERMONT LUNAR 25 Jan 13:45:40 13:49:12 86° 350° (N) 13:52:45 437.305
BEESAT 3 25 Jan 13:47:30 13:51:41 84° 240° (WSW) 13:55:47 437.485
ITAMSAT 1 25 Jan 13:49:43 13:53:27 21° 65° (ENE) 13:57:21 435.822/435.867
BEESAT 25 Jan 13:52:53 13:55:14 14° 89° (E) 13:57:51 436.000
ITUPSAT 1 25 Jan 13:53:46 13:56:09 14° 89° (E) 13:58:46 437.325
AO-7 25 Jan 14:09:22 14:10:28 10° 44° (NE) 14:12:06 29.400- 29.500
PHONESAT 2.4 25 Jan 14:17:10 14:20:49 87° 354° (N) 14:24:30 2401.200-2431.200
Gurwin Techsat 1B 25 Jan 14:18:56 14:23:15 27° 67° (ENE) 14:27:41 435.225
SO-50 25 Jan 14:22:31 14:25:51 19° 319° (NW) 14:29:08 436.795
CUBEBUG 1 25 Jan 14:24:32 14:25:55 11° 297° (WNW) 14:27:03 437.445
SPROUT 25 Jan 14:26:03 14:30:03 35° 289° (WNW) 14:33:59 437.525
AIST 2 25 Jan 14:38:18 14:42:34 67° 240° (WSW) 14:46:44 435.215
GONETS M04 25 Jan 14:39:15 14:47:58 81° 265° (W) 14:56:39
HORYU 2 25 Jan 14:39:23 14:40:39 11° 63° (ENE) 14:42:10 437.375
AIST 1 25 Jan 14:46:33 14:47:25 10° 294° (WNW) 14:48:01
BEESAT 2 25 Jan 15:08:20 15:10:32 14° 250° (WSW) 15:12:32 435.950
SWISSCUBE 25 Jan 15:12:03 15:16:51 81° 284° (WNW) 15:21:38 437.505
PCSat 25 Jan 15:12:53 15:17:56 38° 53° (NE) 15:23:00 145.827
RS-15 25 Jan 15:15:15 15:26:19 57° 49° (NE) 15:37:57 29.354- 29.394
TISAT 1 25 Jan 15:22:04 15:22:44 10° 297° (WNW) 15:23:10 437.305
Oscar 19 25 Jan 15:23:28 15:27:16 20° 269° (W) 15:30:55 437.125/150
VERMONT LUNAR 25 Jan 15:23:50 15:27:22 77° 192° (SSW) 15:30:55 437.305
KKS-1 25 Jan 15:27:15 15:31:01 26° 95° (E) 15:34:50 437.445
ITAMSAT 1 25 Jan 15:27:40 15:32:40 48° 261° (W) 15:37:41 435.822/435.867
BEESAT 25 Jan 15:28:52 15:33:34 59° 287° (WNW) 15:38:15 436.000
ITUPSAT 1 25 Jan 15:29:48 15:34:32 59° 286° (WNW) 15:39:13 437.325
DANDE 25 Jan 15:30:56 15:33:57 13° 52° (NE) 15:37:03 436.750
STARS 25 Jan 15:31:41 15:34:49 19° 92° (E) 15:38:05 437.465
AO-7 25 Jan 15:53:34 16:01:25 48° 64° (ENE) 16:09:22 29.400- 29.500
PHONESAT 2.4 25 Jan 15:55:47 15:59:26 78° 193° (SSW) 16:03:07 2401.200-2431.200
Gurwin Techsat 1B 25 Jan 15:58:09 16:03:05 38° 263° (W) 16:08:01 435.225
AUBIESAT-1 25 Jan 16:11:22 16:13:25 16° 99° (E) 16:15:36 437.475
HORYU 2 25 Jan 16:12:17 16:16:48 75° 258° (WSW) 16:21:20 437.375
CUSAT 1 25 Jan 16:22:29 16:28:41 35° 68° (ENE) 16:33:34 437.405
JAS-2 25 Jan 16:36:01 16:40:50 31° 69° (ENE) 16:45:26 435.910
GONETS M04 25 Jan 16:39:07 16:43:37 14° 282° (WNW) 16:47:29
PCSat 25 Jan 16:56:34 17:01:15 30° 250° (WSW) 17:05:51 145.827
VERMONT LUNAR 25 Jan 17:02:16 17:05:16 25° 207° (SSW) 17:08:14 437.305
KKS-1 25 Jan 17:03:46 17:07:40 28° 291° (WNW) 17:11:27 437.445
STARS 25 Jan 17:07:20 17:11:30 38° 289° (WNW) 17:15:34 437.465
M-CUBED/EXP-1 PRIME 25 Jan 17:08:13 17:11:31 70° 289° (WNW) 17:14:51 437.505
DANDE 25 Jan 17:11:59 17:19:21 77° 78° (ENE) 17:24:50 436.750
CUTE-I 25 Jan 17:20:54 17:22:31 12° 60° (ENE) 17:24:25 437.470
RS-15 25 Jan 17:28:00 17:38:38 45° 250° (WSW) 17:49:29 29.354- 29.394
PHONESAT 2.4 25 Jan 17:34:38 17:37:47 27° 207° (SSW) 17:40:54 2401.200-2431.200
AUBIESAT-1 25 Jan 17:45:41 17:48:28 24° 294° (WNW) 17:51:12 437.475
AO-7 25 Jan 17:46:40 17:54:23 39° 263° (W) 18:02:00 29.400- 29.500
CUSAT 1 25 Jan 18:05:47 18:11:37 32° 274° (W) 18:16:08 437.405
MOZHAYETS 4 25 Jan 18:10:02 18:14:33 59° 100° (E) 18:19:04
O/OREOS (USA 219) 25 Jan 18:16:10 18:20:35 66° 109° (ESE) 18:25:05 437.305
JAS-2 25 Jan 18:20:51 18:25:59 32° 263° (W) 18:30:42 435.910
Cubesat XI-IV 25 Jan 18:35:24 18:40:34 56° 73° (ENE) 18:45:48 437.490
CUTE-I 25 Jan 18:56:34 19:01:52 86° 78° (ENE) 19:07:15 437.470
DANDE 25 Jan 18:57:35 19:01:33 16° 281° (WNW) 19:04:44 436.750
YUBILEINY 25 Jan 19:45:09 19:50:01 17° 79° (E) 19:55:24 435.215
MOZHAYETS 4 25 Jan 19:48:53 19:51:22 14° 295° (WNW) 19:53:38
STRAND 1 25 Jan 19:48:54 19:53:33 34° 96° (E) 19:58:14 437.568
CUBESAT XI-V 25 Jan 19:49:57 19:54:30 50° 99° (E) 19:59:04 437.345
O/OREOS (USA 219) 25 Jan 19:58:14 20:00:35 14° 308° (NW) 20:02:46 437.305
PRISM 25 Jan 20:06:33 20:10:41 71° 285° (WNW) 20:14:48 437.425
CANX-2 25 Jan 20:12:47 20:14:16 12° 65° (ENE) 20:15:59 2200.000
Cubesat XI-IV 25 Jan 20:17:30 20:21:07 18° 270° (W) 20:24:32 437.490
HO-68 25 Jan 20:31:13 20:37:35 38° 65° (ENE) 20:44:05 435.675
CUTE 1.7 + AOD 2 25 Jan 20:35:56 20:38:56 19° 68° (ENE) 20:42:05 437.475
AAUSAT CUBESAT 2 25 Jan 20:40:41 20:42:39 13° 66° (ENE) 20:44:48 437.432
CUTE-I 25 Jan 20:41:20 20:42:47 11° 274° (W) 20:43:51 437.470
BRITE-PL 25 Jan 20:56:45 21:01:26 48° 72° (ENE) 21:06:33 437.365/2234.400
SEEDS 25 Jan 21:11:33 21:15:32 39° 73° (ENE) 21:19:32 437.485
SO-50 25 Jan 21:12:16 21:17:04 50° 53° (NE) 21:21:52 436.795
GOMX 1 25 Jan 21:14:04 21:18:49 51° 73° (ENE) 21:23:56 467.674
UWE-3 25 Jan 21:24:28 21:26:42 14° 64° (ENE) 21:29:11 435.000/436.395/437.385
STRAND 1 25 Jan 21:28:16 21:32:40 28° 292° (WNW) 21:36:58 437.568
CUBESAT XI-V 25 Jan 21:28:31 21:31:37 17° 294° (WNW) 21:34:33 437.345
YUBILEINY 25 Jan 21:37:05 21:45:47 89° 281° (WNW) 21:54:33 435.215
COMPASS 1 25 Jan 21:44:02 21:48:16 79° 77° (ENE) 21:52:31 437.405
CANX-2 25 Jan 21:45:29 21:49:46 64° 259° (W) 21:54:04 2200.000
DOVE 4 25 Jan 21:46:17 21:51:12 77° 75° (ENE) 21:56:25 437.250
Oscar 11 25 Jan 21:56:38 22:00:47 46° 73° (ENE) 22:04:59 145.826/435.025
CINEMA 3 25 Jan 22:04:57 22:09:46 70° 74° (ENE) 22:14:47 145.822/145.860
CUBEBUG 2 25 Jan 22:09:13 22:13:41 45° 73° (ENE) 22:18:17 437.445
CUTE 1.7 + AOD 2 25 Jan 22:10:41 22:14:40 36° 263° (W) 22:18:39 437.475
AAUSAT CUBESAT 2 25 Jan 22:13:47 22:17:56 53° 261° (W) 22:22:04 437.432
HO-68 25 Jan 22:18:32 22:25:16 42° 262° (W) 22:31:57 435.675
UKube-1 25 Jan 22:29:28 22:33:45 65° 74° (ENE) 22:38:04 .
DELFI C3 25 Jan 22:33:03 22:37:09 84° 256° (WSW) 22:41:16 145.870
ZACube-1 25 Jan 22:35:26 22:39:56 60° 74° (ENE) 22:44:31 437.345
BRITE-PL 25 Jan 22:36:50 22:40:23 19° 272° (W) 22:43:56 437.365/2234.400
ESTCUBE 1 25 Jan 22:41:05 22:43:25 15° 65° (ENE) 22:45:57 437.505/2401.250
DX 1 25 Jan 22:45:08 22:49:29 81° 257° (WSW) 22:53:52 434.975-435.025
SEEDS 25 Jan 22:48:43 22:51:35 17° 269° (W) 22:54:18 437.485
FUNcube-1 25 Jan 22:48:47 22:53:21 83° 76° (ENE) 22:58:00 145.935
AISAT 25 Jan 22:49:43 22:53:51 40° 72° (ENE) 22:58:04 437.250
SO-50 25 Jan 22:53:39 22:57:20 20° 249° (WSW) 23:00:51 436.795
GOMX 1 25 Jan 22:53:55 22:57:23 18° 272° (W) 23:00:49 467.674
TIGRISAT 25 Jan 22:56:10 22:57:34 12° 88° (E) 22:59:14 435.000
UWE-3 25 Jan 22:58:09 23:02:45 65° 259° (W) 23:07:27 435.000/436.395/437.385
HUMSAT D 25 Jan 23:11:30 23:15:52 83° 77° (ENE) 23:20:15 437.325/437.525
AIST 1 25 Jan 23:13:58 23:16:27 15° 70° (ENE) 23:19:08
POPSAT HIP 1 25 Jan 23:17:15 23:18:38 12° 88° (E) 23:20:16 437.405
VELOX 1 25 Jan 23:19:57 23:24:22 85° 77° (ENE) 23:28:51 145.980
DUCHIFAT 1 25 Jan 23:21:56 23:23:53 13° 89° (E) 23:26:02 145.980
50 SAT 25 Jan 23:26:23 23:30:31 88° 257° (WSW) 23:34:42 437.505
DOVE 4 25 Jan 23:27:52 23:29:45 12° 275° (W) 23:31:19 437.250
Oscar 11 25 Jan 23:34:38 23:37:17 15° 270° (W) 23:39:46 145.826/435.025
YUBILEINY 25 Jan 23:38:19 23:44:07 18° 300° (WNW) 23:49:29 435.215
CUBEBUG 1 25 Jan 23:41:20 23:45:34 56° 74° (ENE) 23:49:52 437.445
UNISAT 6 25 Jan 23:44:37 23:48:52 41° 98° (E) 23:53:03 437.425
ISS 25 Jan 23:44:46 23:47:13 20° 133° (SE) 23:49:44 145.825
CINEMA 3 25 Jan 23:45:21 23:47:37 13° 273° (W) 23:49:36 145.822/145.860
SPROUT 25 Jan 23:45:25 23:47:50 15° 66° (ENE) 23:50:26 437.525
CUBEBUG 2 25 Jan 23:47:21 23:50:41 18° 270° (W) 23:53:53 437.445
NANOSAT C BR1 25 Jan 23:54:03 23:57:53 31° 96° (E) 00:01:42 145.865
QB50P2 26 Jan 00:05:43 00:09:50 42° 98° (E) 00:13:56 145.880/145.840
UKube-1 26 Jan 00:09:24 00:10:27 11° 272° (W) 00:11:13 .
ZACube-1 26 Jan 00:14:35 00:16:49 13° 272° (W) 00:18:48 437.345
ESTCUBE 1 26 Jan 00:15:31 00:19:55 55° 260° (W) 00:24:20 437.505/2401.250
QB50P1 26 Jan 00:16:28 00:20:44 56° 100° (E) 00:24:58 145.935-145.965
ANTELSAT 26 Jan 00:20:06 00:24:38 78° 284° (WNW) 00:29:00 437.575/2403.000
AISAT 26 Jan 00:27:37 00:30:43 18° 268° (W) 00:33:41 437.250
POLYITAN 1 26 Jan 00:28:20 00:32:42 79° 104° (ESE) 00:37:00 437.675
TIGRISAT 26 Jan 00:30:26 00:34:54 62° 286° (WNW) 00:39:14 435.000
TISAT 1 26 Jan 00:35:02 00:39:07 51° 74° (ENE) 00:43:18 437.305
SWISSCUBE 26 Jan 00:43:45 00:45:32 12° 62° (ENE) 00:47:33 437.505
BUGSAT 1 26 Jan 00:50:04 00:54:22 78° 284° (WNW) 00:58:38 437.445
AIST 1 26 Jan 00:50:18 00:54:26 43° 267° (W) 00:58:33
POPSAT HIP 1 26 Jan 00:50:45 00:55:01 59° 286° (WNW) 00:59:15 437.405
DUCHIFAT 1 26 Jan 00:55:56 01:00:08 52° 286° (WNW) 01:04:18 145.980
BEESAT 26 Jan 00:59:12 01:02:04 16° 65° (ENE) 01:05:06 436.000
ITUPSAT 1 26 Jan 01:00:25 01:03:18 17° 65° (ENE) 01:06:21 437.325
SPROUT 26 Jan 01:19:25 01:23:35 48° 261° (W) 01:27:48 437.525
ISS 26 Jan 01:20:23 01:23:33 44° 328° (NNW) 01:26:44 145.825
CUBEBUG 1 26 Jan 01:20:32 01:22:24 12° 271° (W) 01:24:03 437.445
UNISAT 6 26 Jan 01:22:14 01:25:24 18° 294° (WNW) 01:28:21 437.425
NANOSAT C BR1 26 Jan 01:30:12 01:33:37 23° 292° (WNW) 01:36:56 145.865
QB50P2 26 Jan 01:42:36 01:45:28 17° 293° (WNW) 01:48:11 145.880/145.840
GONETS M04 26 Jan 01:45:16 01:51:38 24° 83° (E) 01:58:19
QB50P1 26 Jan 01:54:00 01:56:12 13° 295° (WNW) 01:58:14 145.935-145.965
Oscar 19 26 Jan 01:55:51 01:59:12 18° 91° (E) 02:02:43 437.125/150
TISAT 1 26 Jan 02:13:20 02:15:21 13° 271° (W) 02:17:10 437.305
SWISSCUBE 26 Jan 02:18:07 02:22:51 75° 257° (WSW) 02:27:38 437.505
M-CUBED/EXP-1 PRIME 26 Jan 02:24:27 02:26:04 12° 62° (ENE) 02:27:49 437.505
KKS-1 26 Jan 02:25:21 02:28:51 24° 68° (ENE) 02:32:29 437.445
STARS 26 Jan 02:28:55 02:31:44 17° 66° (ENE) 02:34:42 437.465
BEESAT 26 Jan 02:34:52 02:39:32 54° 260° (W) 02:44:13 436.000
ITUPSAT 1 26 Jan 02:36:10 02:40:50 54° 260° (W) 02:45:31 437.325
O/OREOS (USA 219) 26 Jan 02:49:04 02:51:11 13° 51° (NE) 02:53:31 437.305
ISS 26 Jan 02:58:53 03:00:44 14° 348° (NNW) 03:02:33 145.825
AUBIESAT-1 26 Jan 02:59:10 03:02:35 26° 66° (ENE) 03:05:51 437.475
BEESAT 2 26 Jan 03:25:39 03:27:01 12° 109° (ESE) 03:28:36 435.950
Oscar 19 26 Jan 03:33:55 03:38:57 53° 288° (WNW) 03:43:55 437.125/150
GONETS M04 26 Jan 03:39:01 03:47:47 70° 281° (W) 03:56:30
ITAMSAT 1 26 Jan 03:40:49 03:46:00 64° 101° (E) 03:51:12 435.822/435.867
BEESAT 3 26 Jan 03:42:05 03:45:07 21° 112° (ESE) 03:48:17 437.485
M-CUBED/EXP-1 PRIME 26 Jan 03:56:36 04:00:48 57° 254° (WSW) 04:04:39 437.505
AO-7 26 Jan 03:58:31 04:01:50 13° 85° (E) 04:05:51 29.400- 29.500
KKS-1 26 Jan 04:01:21 04:05:23 32° 264° (W) 04:09:25 437.445
STARS 26 Jan 04:03:38 04:07:55 45° 261° (W) 04:12:12 437.465
HORYU 2 26 Jan 04:05:10 04:08:33 22° 93° (E) 04:12:01 437.375
Gurwin Techsat 1B 26 Jan 04:14:23 04:19:44 89° 97° (E) 04:25:04 435.225
O/OREOS (USA 219) 26 Jan 04:26:37 04:31:13 71° 250° (WSW) 04:35:47 437.305
AUBIESAT-1 26 Jan 04:34:03 04:37:29 24° 259° (WSW) 04:40:40 437.475
AIST 2 26 Jan 04:36:19 04:39:58 29° 114° (ESE) 04:43:44 435.215
ISS 26 Jan 04:36:50 04:38:20 12° 8° (N) 04:39:51 145.825
DANDE 26 Jan 04:39:58 04:45:12 20° 81° (E) 04:51:10 436.750
BEESAT 2 26 Jan 05:00:41 05:04:46 62° 304° (NW) 05:08:56 435.950
MOZHAYETS 4 26 Jan 05:11:25 05:15:51 52° 74° (ENE) 05:20:20
BEESAT 3 26 Jan 05:19:15 05:23:04 36° 309° (NW) 05:26:55 437.485
ITAMSAT 1 26 Jan 05:21:43 05:25:03 17° 297° (WNW) 05:28:12 435.822/435.867
CUSAT 1 26 Jan 05:27:08 05:34:37 50° 92° (E) 05:42:46 437.405
JAS-2 26 Jan 05:28:38 05:33:24 29° 96° (E) 05:38:45 435.910
RS-15 26 Jan 05:39:46 05:48:55 34° 107° (ESE) 05:58:24 29.354- 29.394
HORYU 2 26 Jan 05:41:18 05:45:20 33° 290° (WNW) 05:49:18 437.375
GONETS M04 26 Jan 05:42:31 05:46:41 13° 304° (NW) 05:50:14
AO-7 26 Jan 05:47:50 05:56:13 77° 106° (ESE) 06:04:31 29.400- 29.500
PCSat 26 Jan 05:54:07 05:59:03 38° 111° (ESE) 06:04:04 145.827
Gurwin Techsat 1B 26 Jan 05:56:48 05:59:03 12° 299° (WNW) 06:01:02 435.225
ISS 26 Jan 06:12:40 06:15:39 30° 27° (NNE) 06:18:39 145.825
AIST 2 26 Jan 06:14:51 06:18:35 28° 311° (NW) 06:22:19 435.215
DANDE 26 Jan 06:19:47 06:27:39 88° 281° (W) 06:36:27 436.750
MOZHAYETS 4 26 Jan 06:50:46 06:53:28 15° 270° (W) 06:55:58
CUBESAT XI-V 26 Jan 06:52:56 06:57:18 45° 73° (ENE) 07:01:43 437.345
Cubesat XI-IV 26 Jan 06:53:53 06:58:05 24° 93° (E) 07:02:24 437.490
PRISM 26 Jan 06:56:25 07:00:32 78° 76° (ENE) 07:04:40 437.425
STRAND 1 26 Jan 07:04:14 07:09:03 46° 71° (ENE) 07:13:57 437.568
CUSAT 1 26 Jan 07:10:30 07:17:55 39° 291° (WNW) 07:25:39 437.405
JAS-2 26 Jan 07:13:32 07:18:38 38° 289° (WNW) 07:24:10 435.910
CUTE-I 26 Jan 07:14:33 07:19:27 36° 97° (E) 07:24:23 437.470
PCSat 26 Jan 07:37:44 07:42:33 31° 309° (NW) 07:47:21 145.827
AO-7 26 Jan 07:41:46 07:48:18 26° 304° (NW) 07:54:34 29.400- 29.500
YUBILEINY 26 Jan 07:48:06 07:56:22 45° 74° (ENE) 08:04:44 435.215
ISS 26 Jan 07:49:10 07:52:11 33° 224° (SW) 07:55:11 145.825
RS-15 26 Jan 07:49:47 08:00:39 66° 308° (NW) 08:11:38 29.354- 29.394
DANDE 26 Jan 08:06:28 08:12:32 21° 301° (WNW) 08:18:31 436.750
CUBESAT XI-V 26 Jan 08:31:58 08:35:03 17° 269° (W) 08:37:59 437.345
Cubesat XI-IV 26 Jan 08:33:19 08:38:24 43° 290° (WNW) 08:43:27 437.490
STRAND 1 26 Jan 08:44:48 08:48:34 20° 268° (W) 08:52:11 437.568
CUTE-I 26 Jan 08:54:50 08:59:26 29° 293° (WNW) 09:03:57 437.470
BRITE-PL 26 Jan 09:02:59 09:07:00 20° 89° (E) 09:11:06 437.365/2234.400
GOMX 1 26 Jan 09:17:46 09:21:24 19° 89° (E) 09:25:09 467.674
COMPASS 1 26 Jan 09:30:19 09:32:12 13° 89° (E) 09:34:17 437.405
CANX-2 26 Jan 09:32:18 09:35:35 22° 93° (E) 09:38:57 2200.000
YUBILEINY 26 Jan 09:45:10 09:53:08 39° 273° (W) 10:00:58 435.215
HO-68 26 Jan 09:46:22 09:52:59 40° 97° (E) 09:59:39 435.675
DOVE 4 26 Jan 09:47:06 09:51:18 25° 91° (E) 09:55:29 437.250
TIGRISAT 26 Jan 09:54:56 09:56:35 12° 63° (ENE) 09:58:29 435.000
CUTE 1.7 + AOD 2 26 Jan 09:56:32 10:00:29 38° 97° (E) 10:04:26 437.475
AAUSAT CUBESAT 2 26 Jan 09:58:20 10:01:41 24° 94° (E) 10:05:06 437.432
CINEMA 3 26 Jan 10:02:06 10:05:24 19° 90° (E) 10:08:47 145.822/145.860
RS-15 26 Jan 10:07:13 10:15:47 24° 337° (NNW) 10:24:18 29.354- 29.394
DELFI C3 26 Jan 10:15:32 10:17:36 14° 90° (E) 10:19:51 145.870
DUCHIFAT 1 26 Jan 10:16:25 10:16:41 10° 63° (ENE) 10:17:11 145.980
UKube-1 26 Jan 10:20:16 10:21:29 11° 89° (E) 10:23:00 .
ZACube-1 26 Jan 10:27:17 10:28:56 12° 88° (E) 10:30:50 437.345
SEEDS 26 Jan 10:32:12 10:36:26 85° 99° (E) 10:40:37 437.485
DX 1 26 Jan 10:35:10 10:38:09 18° 92° (E) 10:41:15 434.975-435.025
